Meteo Giornale » Osservazioni meteo Guatemala » Puerto Barrios
ore: 13:00 - Osservazioni Meteo Puerto Barrios
Lat. 15° 43' N Lon. 88° 36' W Alt. 1 metri s.l.m.
31 °C
Nuvoloso
Temp. 24 Ore
25 °C
31 °C
Nord
22.2 Km/h
Dew point 28 °C
Umidità 84 %
Visibilità 10 Km
Il sole sorge alle ore 05:41
Il sole tramonta alle ore 18:07
| Data e Ora | Cielo e Fenomeni | T °C | DP °C | Um. % | Pres. hPa | Vis. km | Vento km/h | |
|---|---|---|---|---|---|---|---|---|
| Oggi h: 13:00 | Nuvoloso | 31 | 28 | 84 | 1011 | 10 | N 22.2 | |
| Oggi h: 12:00 | Nuvoloso | 31 | 27 | 79 | 1012 | 10 | N 18.5 | |
| Oggi h: 11:00 | Nuvoloso | 31 | 27 | 79 | 1012 | 10 | N 18.5 | |
| Oggi h: 10:00 | Nuvoloso | 30 | 26 | 79 | 1013 | 10 | N 11.1 | |
| Oggi h: 09:00 | Nuvoloso | 29 | 27 | 89 | 1013 | 10 | N 0 | |
| Oggi h: 08:00 | Molto Nuvoloso | 28 | 27 | 94 | 1013 | 10 | N 0 | |
| Oggi h: 07:00 | Nuvoloso | 26 | 26 | 100 | 1012 | 10 | N 0 | |
| Oggi h: 06:00 | Molto Nuvoloso | 26 | 26 | 100 | 1012 | 10 | N 0 | |
| Oggi h: 05:00 | Molto Nuvoloso | 26 | 25 | 94 | 1011 | 10 | N 0 | |
| Oggi h: 04:00 | Coperto | 26 | 25 | 94 | 1011 | 10 | N 0 | |
| Oggi h: 03:00 | Coperto | 25 | 25 | 100 | 1011 | 10 | N 0 | |
| Oggi h: 02:00 | Coperto | 25 | 25 | 100 | 1011 | 10 | N 0 | |
| Oggi h: 01:00 | Pioggia | 26 | 25 | 94 | 1012 | 10 | N 0 | |
| Oggi h: 00:00 | Temporale | 26 | 25 | 94 | 1012 | 10 | E/SE 14.8 | |
| Ieri h: 23:00 | Coperto | 27 | 26 | 94 | 1012 | 10 | N 0 | |
| Ieri h: 22:00 | Temporale | 27 | 26 | 94 | 1012 | 10 | N 0 | |
| Ieri h: 21:00 | Temporale | 28 | 26 | 88 | 1013 | 8 | N 0 | |
| Ieri h: 20:00 | Molto Nuvoloso | 28 | 26 | 88 | 1012 | 10 | N 0 | |
| Ieri h: 19:00 | Temporale | 28 | 26 | 88 | 1011 | 10 | N 0 | |
| Ieri h: 18:00 | Nuvoloso | 29 | 26 | 83 | 1011 | 10 | E 11.1 | |
| Ieri h: 17:00 | Nuvoloso | 30 | 26 | 79 | 1010 | 10 | N/NE 18.5 | |
| Ieri h: 16:00 | Nuvoloso | 31 | 27 | 79 | 1010 | 10 | E/NE 14.8 | |
| Ieri h: 15:00 | Nuvoloso | 30 | 27 | 84 | 1011 | 10 | N/NE 14.8 | |
| Ieri h: 14:00 | Molto Nuvoloso | 31 | 27 | 79 | 1011 | 10 | N/NE 14.8 | |



